Other Public Products
Issued by NWS Grand Forks, ND

Home | Current Version | Previous Version | Graphics & Text | Print | Product List | Glossary On
Versions: 1 2 3 4 5 6 7 8 9 10 11 12 13 14 15 16 17 18 19 20 21 22 23 24 25 26 27 28 29 30 31 32 33 34 35 36 37 38 39 40 41 42 43 44 45 46 47 48 49 50
000
FPUS83 KFGF 231731
OPUFGF
PRAIRIE TO PINES WEATHER ROUNDUP
NATIONAL WEATHER SERVICE EASTERN NORTH DAKOTA/GRAND FORKS ND
1200 PM CDT SAT MAY 23 2015

 **SATELLITE DATA USED TO AUGMENT SKY COVER AT AUTOMATED STATIONS**
 *****  WEATHER ACROSS EASTERN NORTH DAKOTA  *****

CITY           SKY/WX    TMP DP  RH WIND       PRES   REMARKS
GRAND FORKS    MOSUNNY   72  46  39 S12       30.13S
GRAND FORKS AF SUNNY     74  47  37 SW8       30.14R
GRAND CITY NWS   N/A     72 N/A N/A SW15        N/A
BUXTON           N/A     75  46  35 S13         N/A
DEVILS LAKE    SUNNY     70  43  37 SW8       30.14S
FARGO          SUNNY     70  46  42 S12       30.18F
WAHPETON ARPT  MOSUNNY   68  39  34 S15       30.21S
$$

 *****  WEATHER ACROSS CENTRAL AND WESTERN NORTH DAKOTA  *****

CITY           SKY/WX    TMP DP  RH WIND       PRES   REMARKS
JAMESTOWN      SUNNY     66  46  48 S13       30.16F
BISMARCK       SUNNY     62  46  55 VRB6      30.15F
MINOT          SUNNY     70  36  28 VRB7      30.12F
MINOT AFB      SUNNY     76  40  26 VRB1      30.11F
GARRISON         N/A     65  39  38 SE14      30.13F
WILLISTON      SUNNY     70  40  33 SE12G20   30.12S
DICKINSON      MOSUNNY   61  45  55 SE13G24   30.09S
HETTINGER      CLOUDY    54  44  69 SE17G23   30.12R
$$

 *****  OTHER OBSERVATIONS NORTHEAST NORTH DAKOTA  *****

CITY           SKY/WX    TMP DP  RH WIND       PRES   REMARKS
WALHALLA         N/A     77  36  22 E3        30.10S
LANGDON        FAIR      77  36  22 CALM      30.13S
CAVALIER       FAIR      75  32  20 S6        30.11S
GRAFTON        FAIR      73  41  31 SE7       30.13S
CANDO          FAIR      73  39  29 SE6       30.13F
FORT TOTTEN    NOT AVBL
ROLLA            N/A     75  32  20 NE7       30.13S
RUGBY          NOT AVBL
 ***** THE ABOVE OBSERVATIONS ARE NON NWS ARE NOT QUALITY
        CONTROLLED AND MAY MIS-REPORT RAIN FOR SNOW...
$$

 *****  OTHER OBSERVATIONS SOUTHEAST NORTH DAKOTA *****

CITY           SKY/WX    TMP DP  RH WIND       PRES   REMARKS
COOPERSTOWN    NOT AVBL
VALLEY CITY    FAIR      68  45  42 SW13G18   30.18S
OAKES            N/A     64  46  52 SE12G18   30.18F
GWINNER        NOT AVBL
SHEYENNE NWR     N/A     69  44  39 S10       29.95S
BUFFALO        NOT AVBL
WYNDMERE         N/A     68  41  37 S12         N/A
 ***** THE ABOVE OBSERVATIONS ARE NON NWS ARE NOT QUALITY
       CONTROLLED AND MAY MIS-REPORT RAIN FOR SNOW...
$$

  *****  WEATHER ACROSS NORTHERN MINNESOTA  *****

CITY           SKY/WX    TMP DP  RH WIND       PRES   REMARKS
FLAG ISLAND    SUNNY     63  43  48 SE10      30.11F
WARROAD        SUNNY     75  43  31 W13       30.13F
ROSEAU         SUNNY     75  36  23 W6        30.13F
HALLOCK        SUNNY     75  37  25 S7        30.12S
THF RVR FALLS  SUNNY     72  45  37 S16       30.17R
HALSTAD          N/A     72  41  32 SW16        N/A
FOSSTON        SUNNY     70  43  37 SW10G22   30.19S
BAUDETTE       SUNNY     75  35  23 VRB6      30.14S
WASKISH        SUNNY     70  46  43 CALM      30.16S
CROOKSTON      SUNNY     73  45  35 SW17      30.16S
$$
  *****  WEATHER ACROSS CENTRAL AND WEST MINNESOTA  *****

CITY           SKY/WX    TMP DP  RH WIND       PRES   REMARKS
BEMIDJI        SUNNY     71  42  34 S3        30.18R
PARK RAPIDS    SUNNY     72  42  34 SW14      30.20S
WADENA         SUNNY     68  43  40 SW6G16    30.22S
DETROIT LAKES  SUNNY     68  41  37 SW8       30.22S
MOORHEAD       SUNNY     70  45  40 S13       30.19F
FERGUS FALLS   MOSUNNY   68  43  40 S17       30.22S
ELBOW LAKE     CLOUDY    66  44  44 SE14G22   30.22S
MORRIS MN      PTSUNNY   66  45  45 SE10G21   30.20F
STAPLES        MOSUNNY   70  39  32 W10G17    30.22S
WHEATON        MOSUNNY   66  43  42 SE16G26   30.21F
$$
  *****  WEATHER ELSEWHERE ACROSS MINNESOTA  *****

CITY           SKY/WX    TMP DP  RH WIND       PRES   REMARKS
DULUTH         MOSUNNY   74  38  27 VRB7      30.20S
INTRNTL FALLS  SUNNY     76  31  19 W10       30.15S
ELY            SUNNY     73  34  23 W8G17     30.16F
CLOQUET        SUNNY     73  30  20 SW7       30.20F
BRAINERD       SUNNY     70  41  34 W10G21    30.22S
HIBBING        SUNNY     74  34  23 SW10      30.18F
ALEXANDRIA     PTSUNNY   63  42  46 S8        30.25S
SAINT CLOUD    CLOUDY    66  46  48 CALM      30.24F
MINNEAPOLIS    CLOUDY    67  43  41 N7        30.24S
$$

  *****  WEATHER ACROSS SOUTH DAKOTA  *****

CITY           SKY/WX    TMP DP  RH WIND       PRES   REMARKS
SIOUX FALLS    CLOUDY    62  50  64 SE14      30.17F
BROOKINGS      CLOUDY    63  46  55 SE16      30.19F
WATERTOWN      CLOUDY    63  45  51 SE15G22   30.18F
HURON          CLOUDY    62  50  64 SE10      30.14F
SISSETON         N/A     67  42  40 S16       30.18F
ABERDEEN       CLOUDY    63  45  51 S15       30.17F
MITCHELL       CLOUDY    64  50  60 SE15G23   30.15F
PIERRE         CLOUDY    53  50  89 SE14      30.11S
MOBRIDGE       CLOUDY    60  50  69 S14       30.11F
RAPID CITY     CLOUDY    52  45  77 SE9       30.07S
$$

  *****  SOME WEATHER IN NEARBY STATES *****

CITY           SKY/WX    TMP DP  RH WIND       PRES   REMARKS
GLASGOW MT     PTSUNNY   67  39  35 E17G25    30.07S
GREAT FALLS MT LGT RAIN  51  50  96 NW5       30.09S FOG
CHEYENNE WY    CLOUDY    52  44  74 SW12      30.01F
SCOTTSBLUFF NE CLOUDY    53  52  96 E10       30.03S FOG
OMAHA NE       CLOUDY    60  55  83 SE14      30.18F
DES MOINES IA  CLOUDY    68  49  50 S14       30.23F
DAVENPORT IA   SUNNY     76  43  30 S8        30.29S
CHICAGO IL     MOSUNNY   74  43  32 S10       30.30F
EAU CLAIRE WI  CLOUDY    69  46  43 VRB6      30.25R
LA CROSSE WI   CLOUDY    69  48  47 S6        30.26S
$$

  *****  SOME NATIONAL WEATHER *****

CITY           SKY/WX    TMP DP  RH WIND       PRES   REMARKS
LA GUARDIA NY  MOSUNNY   60  25  26 N9        30.40F
RALEIGH NC     MOSUNNY   73  48  41 E9        30.43F
ATLANTA GA     MOSUNNY   78  53  41 E9G18     30.37F
NEW ORLEANS LA PTSUNNY   85  66  53 E9        30.20F
OKLAHOMA CITY  FOG       66  64  93 SE21      30.03F VSB 1/2
ALBUQUERQUE NM MOSUNNY   63  29  27 VRB3      30.03F
SALT LAKE CITY CLOUDY    54  45  71 NW5       29.93S
LOS ANGELES CA PTSUNNY   64  52  64 VRB3      30.08F
BOISE ID       MOSUNNY   64  52  64 W12       29.90S
SEATTLE WA     CLOUDY    54  50  86 SW6       30.17S
$$

*** WEATHER ACROSS MANITOBA...SASKATCHEWAN AND ONTARIO ***
                ***ONTARIO***

CITY           SKY/WX    TMP DP  RH WIND       PRES   REMARKS
GERALDTON      MOSUNNY   73  43  33 SW12G24   29.99F
THUNDER BAY    MOSUNNY   81  37  21 W18G28    30.07F
SIOUX LOOKOUT  PTSUNNY   73  37  27 W16G24    30.05S
TORONTO        MOSUNNY   64  25  22 W8G23     30.37F
BIG TROUT LK   SUNNY     45  30  57 NW9       30.08S
PICKLE LAKE    PTSUNNY   64  41  42 W6        30.00F
DRYDEN         PTSUNNY   75  34  22 W20G31    30.07F
KENORA         MOSUNNY   75  39  27 MISG      30.11F
$$
                *** MANITOBA***

CITY           SKY/WX    TMP DP  RH WIND       PRES   REMARKS
BRANDON        MOSUNNY   77  37  24 W7G17     30.10S
DAUPHIN        SUNNY     81  36  19 W9        30.05S
ISLAND LAKE    MOSUNNY   50  36  57 N9        30.14R
PILOT MOUND      N/A     75  36  23 N3          N/A
THE PAS        MOSUNNY   59  39  47 N12       30.13R
THOMPSON       MOSUNNY   48  25  40 E5        30.21S
WINNIPEG       SUNNY     77  41  27 S9        30.09S
LYNN LAKE      SUNNY     52  27  37 NE8       30.23F
CHURCHILL      PTSUNNY   37  23  56 NW9       30.19S
GILLAM         MOSUNNY   43  25  49 W3        30.21
$$
                ***SASKATCHEWAN***

CITY           SKY/WX    TMP DP  RH WIND       PRES   REMARKS
ESTEVAN        MOSUNNY   72  34  25 SE6       30.13
KINDERSLEY     MOSUNNY   75  30  19 VRB6      30.11F
LLOYDMINSTER   MOSUNNY   77  27  15 S5        30.10S
PRINCE ALBERT  MOSUNNY   77  37  24 NE5       30.07S
REGINA         MOSUNNY   73  39  29 SW6       30.12F


USA.gov is the U.S. government's official web portal to all federal, state and local government web resources and services.